Location: Goll?ig?dem
(16.6773°N, 80.7332°E)
Time: 19:32:32
(UTC+00:00)

Cosmos 2180 Rocket - Pass Details

Date: 19 May 2025
Orbit: 952 x 1004 km, 82.9° (Epoch: 21 June)

Event Time Altitude Azimuth Distance (km) Brightness Sun altitude
Rises 22:55:22 0° 355° (N) 3,681 7.8 -16.0°
Reaches altitude 10° 22:57:54 10° 355° (N) 2,725 7.1 -15.5°
Maximum altitude 23:04:09 86° 266° (W) 973 4.4 -14.2°
Drops below altitude 10° 23:10:18 10° 178° (S) 2,686 6.6 -12.8°
Sets 23:12:46 0° 178° (S) 3,626 7.3 -12.3°
